Du Bois, PA

11:41 PM EDT on May 25, 2017 (GMT -0400)
Du Bois-Jefferson County

Weather History for KDUJ - September, 2013

Change the Weather History Date:

Thursday, September 5, 2013

  Actual Average Record
Temperature  
Mean Temperature 60 °F 64 °F  
Max Temperature 71 °F 74 °F 85 °F (1971)
Min Temperature 48 °F 54 °F 40 °F (2000)
Degree Days  
Heating Degree Days 5 3  
Month to date heating degree days 12 13  
Since 1 July heating degree days 50 75  
Cooling Degree Days 0 2  
Month to date cooling degree days 9 10  
Year to date cooling degree days 495 341  
Growing Degree Days 12 (Base 50)    
Moisture  
Dew Point 48 °F    
Average Humidity 63    
Maximum Humidity 90    
Minimum Humidity 35    
Precipitation  
Precipitation 0.00 in 0.13 in 0.89 in (1963)
Month to date precipitation 0.02 0.64  
Sea Level Pressure  
Sea Level Pressure 30.11 in    
Wind  
Wind Speed 7 mph (WNW)    
Max Wind Speed 15 mph    
Max Gust Speed 22 mph    
Visibility 10 miles    
Events      
T = Trace of Precipitation, MM = Missing Value Source: NWS Daily Summary

Daily Weather History Graph

Daily Weather History Graph

Search for Another Location

Airport or City:

Trip Planner

Search our weather history database for the weather conditions in past years. The results will help you decide how hot, cold, wet, or windy it might be!

Date:

Astronomy

Sep. 05, 2013 Rise Set
Actual Time 6:46 AM EDT 7:41 PM EDT
Civil Twilight 6:18 AM EDT 8:09 PM EDT
Nautical Twilight 5:44 AM EDT 8:42 PM EDT
Astronomical Twilight 5:10 AM EDT 9:17 PM EDT
Moon 6:56 AM EDT (9/5) 7:31 PM EDT (9/5)
Length of Visible Light 13h 51m
Length of Day
12h 54m
New Moon, 0% of the Moon is Illuminated
Sep 5
New Moon
Sep 12
First Quarter
Sep 19
Full
Sep 26
Last Quarter
Oct 4
New

Hourly Weather History & Observations

Time (EDT) Temp. Dew Point Humidity Pressure Visibility Wind Dir Wind Speed Gust Speed Precip Events Conditions
12:56 AM 57.9 °F 54.0 °F 87% 30.05 in 10.0 mi SW 4.6 mph - N/A   Clear
1:56 AM 61.0 °F 57.0 °F 87% 30.04 in 10.0 mi SW 6.9 mph - N/A   Overcast
2:56 AM 61.0 °F 55.9 °F 83% 30.03 in 10.0 mi SW 8.1 mph - N/A   Scattered Clouds
3:56 AM 61.0 °F 57.0 °F 87% 30.03 in 10.0 mi WSW 8.1 mph - N/A   Overcast
4:25 AM 60.8 °F 57.2 °F 88% 30.06 in 10.0 mi SW 8.1 mph - N/A   Overcast
4:56 AM 61.0 °F 57.0 °F 87% 30.04 in 10.0 mi WSW 9.2 mph - N/A   Overcast
5:56 AM 61.0 °F 57.0 °F 87% 30.04 in 10.0 mi WSW 5.8 mph - N/A   Overcast
6:56 AM 61.0 °F 57.0 °F 87% 30.07 in 10.0 mi West 5.8 mph - N/A   Overcast
7:42 AM 62.6 °F 55.4 °F 77% 30.10 in 10.0 mi WNW 3.5 mph - N/A   Overcast
7:56 AM 62.1 °F 53.1 °F 72% 30.10 in 10.0 mi WNW 5.8 mph - N/A   Overcast
8:56 AM 62.1 °F 45.0 °F 53% 30.09 in 10.0 mi WNW 6.9 mph - N/A   Clear
9:56 AM 64.0 °F 46.0 °F 52% 30.10 in 10.0 mi WNW 8.1 mph - N/A   Clear
10:56 AM 66.0 °F 42.1 °F 42% 30.12 in 10.0 mi WNW 11.5 mph - N/A   Clear
11:56 AM 66.9 °F 43.0 °F 42% 30.12 in 10.0 mi NNW 12.7 mph 16.1 mph N/A   Clear
12:56 PM 69.1 °F 45.0 °F 42% 30.13 in 10.0 mi NW 10.4 mph - N/A   Clear
1:56 PM 70.0 °F 43.0 °F 38% 30.12 in 10.0 mi WNW 10.4 mph - N/A   Clear
2:56 PM 70.0 °F 43.0 °F 38% 30.11 in 10.0 mi West 9.2 mph 16.1 mph N/A   Clear
3:56 PM 71.1 °F 43.0 °F 36% 30.10 in 10.0 mi WNW 8.1 mph - N/A   Partly Cloudy
4:56 PM 70.0 °F 42.1 °F 36% 30.11 in 10.0 mi WNW 10.4 mph - N/A   Clear
5:56 PM 68.0 °F 42.1 °F 39% 30.12 in 10.0 mi NW 8.1 mph - N/A   Clear
6:56 PM 64.9 °F 42.1 °F 43% 30.14 in 10.0 mi NW 5.8 mph - N/A   Clear
7:56 PM 60.1 °F 42.1 °F 51% 30.16 in 10.0 mi NNW 4.6 mph - N/A   Clear
8:56 PM 57.9 °F 44.1 °F 60% 30.19 in 10.0 mi North 8.1 mph - N/A   Clear
9:56 PM 54.0 °F 43.0 °F 66% 30.21 in 10.0 mi NNE 4.6 mph - N/A   Clear
10:56 PM 52.0 °F 42.1 °F 69% 30.21 in 10.0 mi North 3.5 mph - N/A   Clear
11:56 PM 48.0 °F 42.1 °F 80% 30.23 in 10.0 mi Calm Calm - N/A   Clear